Sunshine Coast Airport Observation History
Time Wind Speed Temp Pressure Rel. Hum Rain
11/03:00am WSW 3-4 kts 19.7°c 1014.0 hPa 96% 0.0mm
11/02:30am SSW 4-5 kts 19.8°c 1013.8 hPa 95% 0.0mm
11/02:00am SSW 5-6 kts 19.9°c 1014.2 hPa 95% 0.0mm
11/01:30am SW 4-5 kts 20.2°c 1014.4 hPa 95% 0.0mm
11/01:00am SW 4-5 kts 20.3°c 1014.8 hPa 94% 0.0mm
11/12:30am SW 4-5 kts 20.4°c 1014.9 hPa 94% 0.0mm
11/12:00am W 5-6 kts 20.4°c 1015.1 hPa 92% 0.0mm
Time Wind Speed Temp Pressure Rel. Hum Rain
10/11:30pm NNE 4-7 kts 21.4°c 1015.3 hPa 81% 0.0mm
10/11:00pm ENE 7-9 kts 22.9°c 1015.4 hPa 79% 0.0mm
10/10:30pm ENE 7-9 kts 23.0°c 1015.7 hPa 78% 0.0mm
10/10:00pm ENE 7-9 kts 22.9°c 1015.8 hPa 77% 0.0mm
10/09:30pm ENE 7-9 kts 23.2°c 1015.9 hPa 76% 0.0mm
10/09:00pm ENE 9-11 kts 23.2°c 1015.8 hPa 74% 0.0mm
10/08:30pm ENE 8-9 kts 23.3°c 1015.7 hPa 76% 0.0mm
10/08:00pm ENE 6-8 kts 23.3°c 1015.6 hPa 80% 0.0mm
10/07:30pm ENE 7-9 kts 23.3°c 1015.3 hPa 80% 0.0mm
10/07:00pm NE 7-9 kts 23.2°c 1014.9 hPa 79% 0.0mm
10/06:30pm NE 8-10 kts 23.7°c 1014.7 hPa 76% 0.0mm
10/06:00pm ENE 8-11 kts 24.4°c 1014.3 hPa 74% 0.0mm
10/05:30pm ENE 9-12 kts 24.6°c 1013.9 hPa 74% 0.0mm
10/05:00pm ENE 10-13 kts 25.0°c 1013.6 hPa 75% 0.0mm
10/04:55pm ENE 9-12 kts 24.7°c 1013.6 hPa 74% 0.0mm
10/04:35pm ENE 9-12 kts 24.9°c 1013.8 hPa 73% 0.0mm
10/04:30pm ENE 9-11 kts 24.8°c 1013.9 hPa 72% 0.0mm
10/04:00pm ENE 9-11 kts 25.7°c 1014.1 hPa 67% 0.0mm
10/03:30pm ENE 9-11 kts 26.5°c 1014.1 hPa 66% 0.0mm
10/03:00pm ENE 9-11 kts 26.4°c 1014.2 hPa 65% 0.0mm
10/02:30pm ENE 8-10 kts 26.5°c 1014.5 hPa 66% 0.0mm
10/02:00pm ENE 9-11 kts 26.4°c 1014.6 hPa 65% 0.0mm
10/01:30pm ENE 8-11 kts 27.0°c 1014.7 hPa 66% 0.0mm
10/01:00pm NE 9-12 kts 26.2°c 1014.8 hPa 68% 0.0mm
10/12:30pm NE 11-15 kts 26.3°c 1015.1 hPa 63% 0.0mm
10/12:00pm ENE 10-13 kts 26.5°c 1015.1 hPa 65% 0.0mm
10/11:30am E 9-11 kts 26.6°c 1015.3 hPa 66% 0.0mm
10/11:00am ENE 9-11 kts 27.1°c 1015.5 hPa 65% 0.0mm
10/10:30am E 9-11 kts 27.2°c 1015.6 hPa 66% 0.0mm
10/10:00am ENE 8-10 kts 26.2°c 1015.8 hPa 65% 0.0mm
10/09:30am ENE 8-10 kts 25.9°c 1015.9 hPa 66% 0.0mm
10/09:00am E 9-11 kts 26.4°c 1016.0 hPa 69% n/a
10/08:30am - 0.0 kts 25.8°c 1015.9 hPa 67% n/a
10/08:00am E 8-10 kts 25.7°c 1015.9 hPa 67% 1.2mm
10/07:30am E 9-11 kts 25.5°c 1015.7 hPa 69% 1.2mm
10/07:00am E 9-12 kts 25.1°c 1015.7 hPa 69% 1.2mm
10/06:30am ENE 8-10 kts 24.5°c 1015.3 hPa 72% 1.2mm
10/06:00am ENE 8-10 kts 24.1°c 1015.0 hPa 75% 1.2mm
10/05:30am ENE 7-9 kts 23.1°c 1014.9 hPa 79% 1.2mm
10/05:00am E 7-9 kts 22.5°c 1014.4 hPa 81% 1.2mm
10/04:30am E 9-10 kts 22.6°c 1014.3 hPa 80% 1.2mm
10/04:00am E 9-11 kts 22.9°c 1014.2 hPa 79% 1.2mm
10/03:30am ESE 7-10 kts 22.8°c 1014.4 hPa 81% 1.2mm
10/03:00am ESE 8-11 kts 22.8°c 1014.3 hPa 80% 1.2mm
10/02:30am ESE 9-12 kts 23.0°c 1014.7 hPa 77% 1.2mm
10/02:00am ESE 11-14 kts 22.6°c 1014.9 hPa 77% 1.2mm
10/01:30am ESE 7-10 kts 22.7°c 1015.3 hPa 82% 1.2mm
10/01:00am ESE 11-16 kts 22.0°c 1015.6 hPa 85% 1.2mm
10/12:30am ESE 10-13 kts 23.1°c 1016.1 hPa 81% 1.0mm
10/12:00am SE 10-14 kts 23.0°c 1016.2 hPa 82% 1.0mm
Time Wind Speed Temp Pressure Rel. Hum Rain
09/11:30pm ESE 11-14 kts 23.0°c 1016.5 hPa 81% 1.0mm
09/11:00pm ESE 9-13 kts 23.1°c 1016.5 hPa 79% 1.0mm
09/10:30pm ESE 11-15 kts 23.1°c 1016.5 hPa 79% 1.0mm
09/10:00pm ESE 10-13 kts 23.2°c 1016.8 hPa 77% 1.0mm
09/09:30pm ESE 9-14 kts 23.0°c 1016.9 hPa 80% 1.0mm
09/09:00pm ESE 8-13 kts 23.0°c 1016.7 hPa 84% 1.0mm
09/08:30pm SE 10-13 kts 22.8°c 1016.7 hPa 84% 1.0mm
09/08:00pm SE 11-15 kts 22.7°c 1016.9 hPa 82% 1.0mm
09/07:45pm SE 11-15 kts 22.7°c 1016.9 hPa 84% 1.0mm
09/07:30pm E 7-11 kts 21.6°c 1016.9 hPa 84% 1.0mm
09/07:27pm E 8-12 kts 21.7°c 1016.8 hPa 85% 1.0mm
09/07:00pm SE 11-15 kts 23.5°c 1016.7 hPa 78% 0.2mm
09/06:30pm SE 10-15 kts 23.6°c 1016.6 hPa 74% 0.2mm
09/06:00pm SE 11-15 kts 23.9°c 1016.5 hPa 74% 0.2mm
09/05:30pm ESE 9-12 kts 24.6°c 1016.3 hPa 66% 0.2mm
09/05:00pm ESE 10-15 kts 24.9°c 1015.9 hPa 65% 0.2mm
09/04:30pm SE 10-14 kts 24.9°c 1015.7 hPa 65% 0.2mm
09/04:00pm SE 10-14 kts 24.8°c 1015.7 hPa 70% 0.2mm
09/03:30pm SSE 11-15 kts 25.1°c 1015.5 hPa 69% 0.2mm
09/03:00pm SE 11-14 kts 25.4°c 1015.8 hPa 67% 0.2mm
09/02:30pm SE 9-12 kts 25.7°c 1016.0 hPa 67% 0.2mm
09/02:00pm SE 10-14 kts 25.5°c 1016.4 hPa 69% 0.2mm
09/01:30pm E 10-13 kts 26.0°c 1016.4 hPa 58% 0.2mm
09/01:00pm E 11-13 kts 26.1°c 1016.5 hPa 60% 0.2mm
09/12:30pm E 9-12 kts 25.8°c 1016.8 hPa 62% 0.2mm
09/12:00pm E 10-13 kts 25.8°c 1017.3 hPa 65% 0.2mm
09/11:30am E 9-13 kts 25.8°c 1017.3 hPa 67% 0.2mm
09/11:00am E 12-15 kts 25.3°c 1017.5 hPa 66% 0.2mm
09/10:30am E 12-16 kts 25.7°c 1017.5 hPa 67% 0.2mm
09/10:00am E 12-17 kts 25.4°c 1017.5 hPa 69% 0.2mm
09/09:30am E 14-18 kts 25.1°c 1017.4 hPa 69% 0.2mm
09/09:00am E 13-16 kts 23.9°c 1017.5 hPa 73% 4.0mm
09/08:30am E 11-14 kts 24.3°c 1017.6 hPa 75% 4.0mm
09/08:00am ESE 8-11 kts 24.2°c 1017.6 hPa 76% 4.0mm
09/07:30am ESE 9-13 kts 23.3°c 1017.6 hPa 80% 4.0mm
09/07:00am E 11-15 kts 22.4°c 1017.4 hPa 85% 4.0mm
09/06:30am SE 11-15 kts 21.8°c 1017.3 hPa 94% 4.0mm
09/06:00am SE 11-17 kts 21.0°c 1017.3 hPa 95% 4.0mm
09/05:43am E 13-17 kts 20.6°c 1017.1 hPa 94% 3.8mm
09/05:33am ESE 8-19 kts 20.9°c 1017.0 hPa 93% 3.2mm
09/05:30am E 7-11 kts 20.7°c 1016.9 hPa 93% 3.2mm
09/05:00am ESE 14-19 kts 21.7°c 1016.8 hPa 86% 2.2mm
09/04:30am SE 11-15 kts 21.0°c 1016.5 hPa 89% 2.2mm
09/04:00am SE 13-19 kts 20.6°c 1016.5 hPa 91% 2.2mm
09/03:56am SE 15-25 kts 20.6°c 1016.6 hPa 91% 2.2mm
09/03:45am SE 15-25 kts 20.6°c 1016.5 hPa 91% 2.2mm
09/03:30am S 7-9 kts 19.9°c 1016.4 hPa 92% 2.2mm
09/03:00am SSE 8-11 kts 20.6°c 1016.7 hPa 91% 2.2mm
09/02:30am SSE 13-18 kts 20.8°c 1017.0 hPa 87% 2.2mm
09/02:00am SE 15-23 kts 21.1°c 1017.2 hPa 84% 2.2mm
09/01:30am SSE 11-15 kts 21.3°c 1017.3 hPa 84% 2.2mm
09/01:00am SE 15-21 kts 21.8°c 1017.6 hPa 83% 2.2mm
09/12:30am SE 15-18 kts 22.0°c 1017.7 hPa 81% 2.2mm
09/12:00am ESE 12-18 kts 21.9°c 1018.2 hPa 84% 2.2mm